Tracking 19176 objects as of 25-May-2018
HD Live streaming from Space Station
objects crossing your sky now

ABS 1 (LMI 1)

Track ABS 1 (LMI 1) now!
ABS 1 (LMI 1) is classified as:


NORAD ID: 25924
Int'l Code: 1999-053A
Perigee: 35,779.9 km
Apogee: 35,807.6 km
Inclination: 0.0 °
Period: 1,436.1 minutes
Semi major axis: 42164 km
RCS: 0.2534 m2 (medium)
Launch date: September 26, 1999
Source: People's Republic of China (PRC)
Launch site: TYURATAM MISSILE AND SPACE COMPLEX (TTMTR)

28 C-band, 16 Ku-band; business services, public voice and data services, broadcasting, direct-to-home; Eastern Europe, CIS, South and Southeast Asia, Africa, Middle East, Australia.
aabbcc
Your satellite tracking list
Your tracking list is empty




NASA's NSSDC Master Catalog

Two Line Element Set (TLE):
1 25924U 99053A   18144.88487642 -.00000135 +00000-0 +00000-0 0  9993
2 25924 000.0179 008.6849 0003289 072.6605 278.6892 01.00271726068343
Source of the keplerian elements: AFSPC